www.pogodaiklimat.ru

Погода и климат >> Архив погоды >> Индонезия >> Рутенг


ПОГОДА в Рутенге

  • Прогноз погоды в Рутенге
  • Монитор погоды в Рутенге

АРХИВ ПОГОДЫ в Рутенге

Время (UTC), дата Ветер
(напр.,м/с)
 
Видим.   Явления Облачность Т
(С)
Тd
(С)
f
(%)
Тe
(С)
Тes
(С)
Комфортность P
(гПа)
Po
(гПа)
Тmin
(С)
Tmax
(С)
R
(мм)
R24
(мм)
S
(см)
00 12.08 ЮВ 1 16 км 1/1 450 м
[Cu hum Ci fib]
+18.4 +16.6 89 +20 +25 1013.7 890.8 +14.4
03 12.08 СВ 3 16 км 4/4 450 м
[Cu hum Ci fib]
+23.4 +18.5 74 +30 +38 очень
душно
1013.2 890.3
06 12.08 С 2 12 км 9/8 400 м
[Cu med, cong As op Ci fib]
+22.8 +18.6 77 +29 +31 очень
душно
1010.9 888.0
09 12.08 С 3 12 км 9/6 400 м
[Cu med, cong As op Ci fib]
+21.4 +18.5 84 +26 +26 душно 1011.2 888.3
12 12.08 СВ 3 8000 м 9/6 400 м
[Cu med, cong As op Ci fib]
+18.8 +17.8 94 +20 +20 1012.9 890.0 +24.0
00 13.08 СВ 4 14 км 3/3 450 м
[Cu hum Ci fib]
+19.2 +15.4 79 +21 +23 комфорт 1013.0 890.1 +14.4
03 13.08 С 6 16 км 6/5 400 м
[Cu med, cong As op Ci fib]
+23.4 +17.6 70 +29 +32 душно 1013.0 890.1
06 13.08 С 3 12 км 9/6 400 м
[Cu med, cong As op Ci fib]
+21.8 +19.0 84 +27 +30 душно 1011.1 888.2
09 13.08 С 2 8000 м 9/6 400 м
[Cu med, cong As op Ci fib]
+20.2 +18.2 88 +24 +25 комфорт 1011.6 888.8
12 13.08 штиль 0 8000 м 5/5 400 м
[Cu hum Ci fib]
+19.2 +18.2 94 +21 +21 комфорт 1013.1 890.3 +23.8
00 14.08 СВ 2 8000 м 10/1 360 м
[Cu hum Ci fib]
+18.4 +17.4 94 +20 +23 1013.8 890.9 +16.0
03 14.08 штиль 0 10 км 9/6 360 м
[Cu med, cong As op Ci fib]
+20.8 +18.5 87 +25 +31 комфорт 1014.1 891.3
06 14.08 ЮЗ 3 12 км 8/5 400 м
[Cu med, cong As op Ci fib]
+22.6 +19.5 83 +29 +33 очень
душно
1012.1 889.2
09 14.08 СВ 2 10 км 8/8 400 м
[Cu med, cong As op Ci fib]
+21.4 +19.1 87 +26 +26 душно 1011.1 888.2
12 14.08 штиль 0 8000 м 6/5 400 м
[Cu hum Ci fib]
+18.8 +17.4 92 +20 +20 1012.7 889.8 +24.8
06 15.08 З 2 16 км 6/6 400 м
[Cu med, cong Ci fib]
+25.2 +19.6 71 +31 +36 очень
душно
1013.8 890.7
09 15.08 С 4 16 км 6/5 400 м
[Cu med, cong As op Ci fib]
+23.6 +18.1 71 +28 +28 душно 1011.5 888.7
12 15.08 С 1 8000 м 6/4 420 м
[Cu hum Ci fib]
+19.0 +18.3 96 +22 +22 комфорт 1012.7 889.8 +26.0
00 16.08 Ю 2 16 км 1/1 480 м
[Cu hum Ci fib]
+17.0 +12.5 75 +18 +22 1013.4 890.6 +11.0
03 16.08 СВ 4 16 км 1/1 480 м
[Cu hum Ci fib]
+22.8 +15.8 65 +27 +39 душно 1013.5 890.7
06 16.08 СВ 1 14 км 8/6 400 м
[Cu med, cong As trans Ci fib]
+24.6 +19.2 72 +30 +35 очень
душно
1011.7 888.9
09 16.08 ЮЗ 2 10 км 8/6 400 м
[Cu med, cong Ac As Ci fib]
+22.2 +19.3 84 +28 +28 душно 1011.5 888.6
00 17.08 Ю 1 16 км 1/1 480 м
[Cu hum Ci fib]
+16.8 +12.0 73 +18 +23 1013.7 890.8 +10.2
03 17.08 СВ 3 16 км 3/3 480 м
[Cu hum Ci fib]
+23.2 +16.7 67 +28 +39 душно 1014.1 891.3
06 17.08 СВ 4 16 км 8/6 400 м
[Cu med, cong As op Ci fib]
+24.2 +17.0 64 +28 +31 душно 1011.8 888.9
09 17.08 Ю 3 12 км 8/8 400 м
[Cu med, cong As op Ci fib]
+21.6 +17.8 79 +26 +26 душно 1012.0 889.1
12 17.08 штиль 0 8000 м 6/6 400 м
[Cu med, cong As op Ci fib]
+18.8 +16.8 88 +20 +20 1013.2 890.4 +25.4
00 18.08 Ю 1 16 км 1/1 450 м
[Cu hum Ci fib]
+18.0 +12.6 71 +19 +24 1013.0 890.2 +12.6
03 18.08 СВ 4 16 км 1/1 480 м
[Cu hum Ci fib]
+23.4 +16.7 66 +28 +39 душно 1013.0 890.1
06 18.08 СВ 3 16 км 6/5 450 м
[Cu hum Ci fib]
+25.0 +17.3 62 +29 +35 душно 1010.7 887.9
09 18.08 Ю 2 10 км 8/6 400 м
[Cu med, cong As op Ci fib]
+21.4 +18.1 81 +26 +26 душно 1010.8 887.9
12 18.08 штиль 0 8000 м 8/6 400 м
[Cu med, cong As op Ci fib]
+18.2 +15.8 86 +19 +19 1012.6 889.8 +26.2

 

Местоположение метеостанции Рутенг (Индонезия): широта -8.63 долгота 120.45 высота над уровнем моря 1170 м.

В архиве по умолчанию представлена погода в Рутенге за последнюю неделю. Архивные данные за месяц целиком и за предыдущие месяцы, начиная с января 2011 года, Вы можете получить, выбрав интересующий диапазон дат из раскрывающегося списка и нажав кнопку "Ввод!".


*Определитесь, кто Вы:
робот инопланетянин человек

Внимание! Время в таблицах - всемирное. Для получения местного времени необходимо прибавить поправку, которая равна 8 ч.

Смотрите также архив погоды в соседних городах и на ближайших метеорологических станциях:

Погода в Аэропорту Умбу Механг Кунда (Индонезия) (116 км)
Погода в Биме (Индонезия) (193 км)
Погода в Маумере (Индонезия) (198 км)
Погода в Сабу (Индонезия) (257 км)
Погода в Ларантуке (Индонезия) (280 км)
Погода в Сумбава-Бесаре (Индонезия) (335 км)
Погода на Роти (Индонезия) (370 км)
Погода в Купанге (Индонезия) (391 км)
Погода в Аэропорту Султана Хасануддин (Индонезия) (408 км)
Погода в Уджангпанданге (Индонезия) (408 км)

Пояснения к столбцам:

Ветер - указаны скорость ветра в м/с - средняя за 10 мин, порывы в срок и между сроками (в фигурных скобках) и направление, откуда дует ветер: С - северный, СВ - северо-восточный, В - восточный, ЮВ - юго-восточный, Ю - южный, ЮЗ - юго-западный, З - западный, СЗ - северо-западный.
Видимость - горизонтальная дальность видимости в метрах или километрах. При видимости от 1 до 10 км при отсутствии осадков обычно наблюдается дымка, при ухудшении видимости до 1 км и менее - туман. В сухую погоду видимость может ухудшаться дымом, пылью или мглою.
Явления - указаны атмосферные явления, наблюдавшиеся в срок или в последний час перед сроком; фигурными скобками обозначены явления, наблюдавшиеся между сроками (за 1-3 часа до срока); квадратными скобками обозначены град или гололедные отложения с указанием их диаметра в мм.
Облачность - указаны через наклонную черту общая и нижняя облачность в баллах и высота нижней границы облаков в метрах; квадратными скобками обозначены формы облаков: Ci - перистые, Cs - перисто-слоистые, Cc - перисто-кучевые, Ac - высококучевые, As - высокослоистые, Sc - слоисто-кучевые, Ns - слоисто-дождевые, Cu - кучевые, Cb - кучево-дождевые. Подробнее классификацию облаков см. в Атласе облаков (PDF).
T - Температура воздуха - температура, измеренная на высоте 2 м над землей.
Td - Температура точки росы - температура, при понижении до которой содержащийся в воздухе водяной пар достигнет насыщения.
f - Относительная влажность воздуха - влажноcть воздуха, измеренная на высоте 2 м над землей.
Te - Эффективная температура - температура, которую ощущает одетый по сезону человек в тени. Характеристика душности погоды. При расчете учитывается влияние влажности воздуха и скорости ветра на теплоощущения человека.
Tes - Эффективная температура на солнце - температура, которую ощущает человек, с поправкой на солнечный нагрев. Характеристика знойности погоды. Зависит от высоты солнца над горизонтом, облачности и скорости ветра. Ночью, в пасмурную погоду, а также при ветре 12 м/с и более поправка равна нулю.
P - Атмосферное давление - приведенное к уровню моря атмосферное давление.
Po - Атмосферное давление - измеренное на уровне метеостанции атмосферное давление.
Tmin - Минимальная температура - минимум температуры воздуха на высоте 2 м над землей.
Tmax - Максимальная температура - максимум температуры воздуха на высоте 2 м над землей.
R - Количество осадков - Количество выпавших осадков за период времени, мм. При наведении курсора мыши на число - период времени, за который выпало указанное количество осадков.
R24 - Количество осадков - Количество выпавших осадков за 24 часа, мм.
S - Снежный покров - Высота снежного покрова, см. При наведении курсора мыши на число - состояние снежного покрова и степень покрытия местности в баллах.